This demonstration page uses our WeatherBlox Daily Observations layout. Learn more.

Left ArrowRight Arrow

40.92945, -100.16068

Hourly Observations for February 26, 2018

Temp ( °F °C ) Dew Point ( °F °C ) Humidity (%) Winds ( mph kmh ) Pressure ( in mb ) Visibility ( mi km ) Precip ( " mm )
12:15 am 00:15 Clear 29 -1.5 21 -6.3 70 70 SW 7 11 30.15 1021 10 16.0934 0 0
12:35 am 00:35 Clear 30 -1.1 20 -6.5 67 67 SW 7 11 30.15 1021 10 16.0934 0 0
12:55 am 00:55 Clear 30 -1.1 20 -6.7 66 66 WSW 6 9 30.15 1021 10 16.0934 0 0
1:15 am 01:15 Clear 31 -0.6 20 -6.6 64 64 Calm 30.15 1021 10 16.0934 0 0
1:35 am 01:35 Clear 30 -0.9 19 -7.4 62 62 SW 3 6 30.15 1021 10 16.0934 0 0
1:55 am 01:55 Clear 31 -0.6 19 -7.2 61 61 SW 6 9 30.15 1021 10 16.0934 0 0
2:15 am 02:15 Clear 30 -1 19 -7.5 62 62 WSW 5 7 30.15 1021 10 16.0934 0 0
2:35 am 02:35 Clear 30 -1 19 -7.5 62 62 WSW 3 6 30.15 1021 10 16.0934 0 0
2:55 am 02:55 Clear 29 -1.9 19 -7.4 66 66 Calm 30.15 1021 10 16.0934 0 0
3:15 am 03:15 Clear 25 -4 19 -7 80 80 Calm 30.18 1022 10 16.0934 0 0
3:35 am 03:35 Clear 24 -4.4 20 -6.9 83 83 Calm 30.18 1022 10 16.0934 0 0
3:55 am 03:55 Clear 24 -4.5 20 -6.8 84 84 Calm 30.18 1022 10 16.0934 0 0
4:15 am 04:15 Clear 24 -4.4 20 -6.4 86 86 Calm 30.18 1022 10 16.0934 0 0
4:35 am 04:35 Clear 24 -4.7 18 -7.6 80 80 SSE 6 9 30.18 1022 10 16.0934 0 0
4:55 am 04:55 Clear 25 -4 18 -7.7 76 76 S 7 11 30.18 1022 10 16.0934 0 0
5:15 am 05:15 Clear 26 -3.2 17 -8.5 67 67 SSE 5 7 30.18 1022 10 16.0934 0 0
5:35 am 05:35 Clear 27 -2.6 16 -8.8 63 63 Calm 30.18 1022 10 16.0934 0 0
5:55 am 05:55 Clear 30 -1.3 15 -9.2 55 55 Calm 30.15 1021 10 16.0934 0 0
6:15 am 06:15 Clear 29 -1.6 16 -8.9 58 58 ENE 3 6 30.15 1021 10 16.0934 0 0
6:35 am 06:35 Clear 31 -0.6 13 -10.3 48 48 Calm 30.15 1021 10 16.0934 0 0
6:55 am 06:55 Clear 30 -0.9 13 -10.6 48 48 Calm 30.15 1021 10 16.0934 0 0
7:15 am 07:15 Clear 29 -1.9 13 -10.3 53 53 Calm 30.12 1020 10 16.0934 0 0
7:35 am 07:35 Sunny 28 -2 13 -10.5 53 53 Calm 30.12 1020 10 16.0934 0 0
7:55 am 07:55 Sunny 28 -2.2 17 -8.4 63 63 S 3 6 30.18 1022 10 16.0934 0 0
8:15 am 08:15 Sunny 33 0.3 16 -9.1 50 50 Calm 30.15 1021 10 16.0934 0 0
8:35 am 08:35 Sunny 35 1.5 16 -8.7 47 47 S 10 17 30.12 1020 10 16.0934 0 0
8:55 am 08:55 Sunny 36 2.4 17 -8.2 46 46 S 6 9 30.12 1020 10 16.0934 0 0
9:15 am 09:15 Sunny 38 3.3 15 -9.5 39 39 S 8 13 30.12 1020 10 16.0934 0 0
9:35 am 09:35 Sunny 39 4.1 16 -8.9 39 39 SSW 7 11 30.09 1019 10 16.0934 0 0
9:55 am 09:55 Sunny 39 4.1 15 -9.3 37 37 SW 12 19 30.09 1019 10 16.0934 0 0
10:15 am 10:15 Sunny 40 4.5 16 -9 37 37 SW 20 31 30.09 1019 10 16.0934 0 0
10:35 am 10:35 Sunny 40 4.4 17 -8.6 39 39 WSW 10 17 30.09 1019 10 16.0934 0 0
10:55 am 10:55 Sunny 41 5 16 -8.7 37 37 WSW 9 15 30.09 1019 10 16.0934 0 0
11:15 am 11:15 Sunny 42 5.4 17 -8.2 37 37 WSW 9 15 30.09 1019 10 16.0934 0 0
11:35 am 11:35 Sunny 42 5.7 18 -7.7 38 38 WSW 9 15 30.09 1019 10 16.0934 0 0
11:55 am 11:55 Sunny 43 6 19 -7.5 38 38 SW 9 15 30.09 1019 10 16.0934 0 0
12:15 pm 12:15 Sunny 45 7 19 -7.4 35 35 SSW 9 15 30.09 1019 10 16.0934 0 0
12:35 pm 12:35 Sunny 46 7.8 19 -7 35 35 S 10 17 30.03 1017 10 16.0934 0 0
12:55 pm 12:55 Sunny 47 8.4 19 -7.1 33 33 S 9 15 30.03 1017 10 16.0934 0 0
1:15 pm 13:15 Sunny 49 9.2 20 -6.5 33 33 S 9 15 30.03 1017 10 16.0934 0 0
1:35 pm 13:35 Sunny 50 9.8 20 -6.9 30 30 SSW 10 17 29.97 1015 10 16.0934 0 0
1:55 pm 13:55 Sunny 51 10.4 19 -7 29 29 SSW 9 15 29.97 1015 10 16.0934 0 0
2:15 pm 14:15 Sunny 52 11.1 19 -7.1 27 27 SSW 9 15 29.97 1015 10 16.0934 0 0
2:35 pm 14:35 Sunny 53 11.7 19 -7.1 26 26 SW 3 6 29.94 1014 10 16.0934 0 0
2:55 pm 14:55 Sunny 55 12.6 16 -9 21 21 WSW 5 7 29.91 1013 10 16.0934 0 0
3:15 pm 15:15 Sunny 56 13.2 13 -10.5 18 18 S 5 7 29.91 1013 10 16.0934 0 0
3:35 pm 15:35 Sunny 56 13.5 14 -10.1 19 19 S 6 9 29.91 1013 10 16.0934 0 0
3:55 pm 15:55 Sunny 57 13.9 16 -8.8 20 20 SSW 8 13 29.91 1013 10 16.0934 0 0
4:15 pm 16:15 Sunny 57 14 15 -9.7 18 18 Calm 29.88 1012 10 16.0934 0 0
4:35 pm 16:35 Sunny 57 14.1 15 -9.2 19 19 Calm 29.88 1012 10 16.0934 0 0
4:55 pm 16:55 Sunny 57 14.1 15 -9.7 18 18 NNE 3 6 29.88 1012 10 16.0934 0 0
5:15 pm 17:15 Sunny 55 12.9 24 -4.5 30 30 NE 3 6 29.88 1012 10 16.0934 0 0
5:35 pm 17:35 Sunny 52 11.3 24 -4.4 33 33 NE 7 11 29.91 1013 10 16.0934 0 0
5:55 pm 17:55 Sunny 48 8.7 27 -3 44 44 NE 6 9 29.94 1014 10 16.0934 0 0
6:15 pm 18:15 Sunny 45 7.1 25 -3.8 46 46 NE 5 7 29.94 1014 10 16.0934 0 0
6:35 pm 18:35 Clear 42 5.7 24 -4.2 49 49 ENE 8 13 29.97 1015 10 16.0934 0 0
6:55 pm 18:55 Clear 39 4.1 24 -4.5 54 54 ENE 9 15 29.97 1015 10 16.0934 0 0
7:15 pm 19:15 Clear 39 4.1 23 -4.8 53 53 ENE 9 15 29.97 1015 10 16.0934 0 0
7:35 pm 19:35 Clear 38 3.1 25 -4.1 60 60 E 10 17 29.97 1015 10 16.0934 0 0
7:55 pm 19:55 Clear 37 3 24 -4.2 60 60 E 7 11 29.97 1015 10 16.0934 0 0
8:15 pm 20:15 Clear 39 4.1 23 -5.1 52 52 E 6 9 29.97 1015 10 16.0934 0 0
8:35 pm 20:35 Clear 39 4.1 22 -5.5 50 50 E 7 11 29.97 1015 10 16.0934 0 0
8:55 pm 20:55 Clear 40 4.6 21 -6.3 45 45 E 8 13 29.97 1015 10 16.0934 0 0
9:15 pm 21:15 Clear 41 5.1 20 -6.8 42 42 ESE 9 15 29.97 1015 10 16.0934 0 0
9:35 pm 21:35 Clear 40 4.7 19 -7 43 43 ESE 9 15 29.97 1015 10 16.0934 0 0
9:55 pm 21:55 Clear 40 4.2 19 -7 44 44 ESE 8 13 29.97 1015 10 16.0934 0 0
10:15 pm 22:15 Clear 39 4 19 -7 45 45 SE 9 15 29.94 1014 10 16.0934 0 0
10:35 pm 22:35 Clear 38 3.6 19 -7 46 46 E 8 13 29.94 1014 10 16.0934 0 0
10:55 pm 22:55 Clear 35 1.6 21 -6 57 57 E 7 11 29.97 1015 10 16.0934 0 0
11:15 pm 23:15 Clear 38 3.5 20 -6.5 48 48 ESE 8 13 29.94 1014 10 16.0934 0 0
11:35 pm 23:35 Clear 37 2.6 20 -6.9 50 50 ESE 6 9 29.94 1014 10 16.0934 0 0
11:55 pm 23:55 Clear 36 2 19 -7 52 52 ESE 5 7 29.97 1015 10 16.0934 0 0

Powered by AerisWeather